Location: Newark
(34.6283°N, 36.0776°E)
Time: 07:08:04
(UTC+00:00)

A-11 Canister half - Pass Details

Date: 17 September 2019
Orbit: 1527 x 1682 km, 47.3° (Epoch: 20 October)

Event Time Altitude Azimuth Distance (km) Brightness Sun altitude
Rises 22:56:30 0° 173° (S) 4,662 - -48.1°
Reaches altitude 10° 23:01:39 10° 149° (SSE) 3,692 - -47.5°
Maximum altitude 23:05:46 14° 122° (ESE) 3,420 - -47.0°
Exits shadow 23:07:02 13° 113° (ESE) 3,454 10.9 -46.8°
Drops below altitude 10° 23:09:53 10° 95° (E) 3,730 11.2 -46.5°
Sets 23:15:05 0° 72° (ENE) 4,747 12.1 -45.8°
